Tracking 19794 objects as of 23-Jul-2019
HD Live streaming from Space Station
objects crossing your sky now

SL-12 R/B(AUX MOTOR)

Track SL-12 R/B(AUX MOTOR) now!
10-day predictions


NORAD ID: 19856
Int'l Code: 1989-001H
Perigee: 516.1 km
Apogee: 18,923.5 km
Inclination: 64.9 °
Period: 338.6 minutes
Semi major axis: 16090 km
RCS: 0.7416 m2 (medium)
Launch date: January 10, 1989
Source: Commonwealth of Independent States (former USSR) (CIS)
Launch site: TYURATAM MISSILE AND SPACE COMPLEX (TTMTR)

Note: This is a ROCKET BODY
aabbcc
Your satellite tracking list
Your tracking list is empty




NASA's NSSDC Master Catalog

Two Line Element Set (TLE):
1 19856U 89001H   19203.15212947  .00000076  00000-0  11689-3 0  9994
2 19856  64.9220 177.9502 5719852 154.6672 250.5892  4.25341280473232
Source of the keplerian elements: AFSPC